DW5567 Weather Reports


Display with metric or nautical units.
time (UTC)temp
F
wind
direction
speed
MPH
gust
MPH
rain 1hr
in
rain 24hr
in
rain mn
in
humidity
%
barometer
mb
20200406161524 80 68 4.0 8.0 0.00 0.00 0.00 82 1017.2
20200406160013 81 79 2.0 6.0 0.00 0.00 0.00 80 1017.3
20200406154513 81 101 4.0 8.0 0.00 0.00 0.00 79 1017.3
20200406153005 81 49 4.0 7.0 0.00 0.00 0.00 79 1017.2
20200406151752 80 70 4.0 6.0 0.00 0.00 0.00 81 1017.2
20200406150240 79 44 1.0 5.0 0.00 0.00 0.00 83 1017.3
20200406144706 78 62 2.0 5.0 0.00 0.00 0.00 83 1017.3
20200406143131 78 13 0.0 5.0 0.00 0.00 0.00 84 1017.2
20200406141630 79 61 1.0 6.0 0.00 0.00 0.00 83 1017.2
20200406140211 78 340 2.0 6.0 0.00 0.00 0.00 85 1017.0
20200406134558 77 96 2.0 5.0 0.00 0.00 0.00 86 1017.1
20200406133043 77 86 2.0 6.0 0.00 0.00 0.00 88 1016.9
20200406131612 76 58 1.0 4.0 0.00 0.00 0.00 88 1016.8
20200406130204 76 67 0.0 3.0 0.00 0.00 0.00 89 1016.8
20200406124636 75 82 0.0 3.0 0.00 0.00 0.00 90 1016.5
20200406123045 74 270 0.0 1.0 0.00 0.00 0.00 90 1016.4
20200406121638 74 38 0.0 1.0 0.00 0.00 0.00 90 1016.2
20200406120047 74 38 0.0 1.0 0.00 0.00 0.00 90 1016.0
20200406114601 74 65 0.0 0.0 0.00 0.00 0.00 90 1015.9
20200406113027 74 65 0.0 1.0 0.00 0.00 0.00 90 1015.7
20200406111550 73 65 0.0 0.0 0.00 0.00 0.00 90 1015.4
20200406110033 73 65 0.0 0.0 0.00 0.00 0.00 90 1015.4
20200406104558 73 42 0.0 1.0 0.00 0.00 0.00 90 1015.3
20200406103039 73 39 0.0 1.0 0.00 0.00 0.00 90 1015.1
20200406101552 73 25 0.0 2.0 0.00 0.00 0.00 90 1015.0
20200406100023 73 23 0.0 1.0 0.00 0.00 0.00 90 1014.7
20200406094549 73 354 0.0 2.0 0.00 0.00 0.00 90 1014.6
20200406093043 73 43 0.0 1.0 0.00 0.00 0.00 91 1014.5
20200406090047 72 5 0.0 2.0 0.00 0.00 0.00 91 1014.6
20200406084524 73 346 0.0 2.0 0.00 0.00 0.00 90 1014.5
20200406083029 73 320 0.0 2.0 0.00 0.00 0.00 90 1014.5
20200406081529 73 336 1.0 4.0 0.00 0.00 0.00 89 1014.6
20200406080030 73 212 0.0 0.0 0.00 0.00 0.00 88 1014.6
20200406074526 73 187 0.0 0.0 0.00 0.00 0.00 87 1014.6
20200406073056 74 187 0.0 0.0 0.00 0.00 0.00 86 1014.6
20200406071616 74 187 0.0 0.0 0.00 0.00 0.00 85 1014.9
20200406070022 74 187 0.0 0.0 0.00 0.00 0.00 84 1015.1
20200406064504 74 187 0.0 0.0 0.00 0.00 0.00 84 1015.2
20200406063145 73 187 0.0 1.0 0.00 0.00 0.00 85 1015.2
20200406061738 73 187 0.0 0.0 0.00 0.00 0.00 86 1015.3
20200406060410 73 187 0.0 0.0 0.00 0.00 0.00 85 1015.2
20200406054636 73 187 0.0 0.0 0.00 0.00 0.00 84 1015.7
20200406053202 73 187 0.0 0.0 0.00 0.00 0.00 84 1016.1
20200406051622 73 187 0.0 0.0 0.00 0.00 0.00 85 1016.2
20200406050055 73 187 0.0 1.0 0.00 0.00 0.00 86 1016.2
20200406044701 72 187 0.0 0.0 0.00 0.00 0.00 88 1016.3
20200406043200 71 187 0.0 0.0 0.00 0.00 0.00 88 1016.2
20200406041606 71 187 0.0 0.0 0.00 0.00 0.00 88 1016.3
20200406040132 71 187 0.0 1.0 0.00 0.00 0.00 87 1016.0
20200406034606 72 187 0.0 0.0 0.00 0.00 0.00 86 1016.0
20200406033101 72 188 0.0 0.0 0.00 0.00 0.00 86 1016.1
20200406031609 73 187 0.0 0.0 0.00 0.00 0.00 85 1016.2
20200406030148 73 187 0.0 0.0 0.00 0.00 0.00 84 1016.1
20200406024607 74 188 0.0 0.0 0.00 0.00 0.00 83 1015.9
20200406023047 74 187 0.0 1.0 0.00 0.00 0.00 82 1015.7
20200406021628 75 187 0.0 1.0 0.00 0.00 0.00 82 1015.5
20200406020135 75 187 0.0 1.0 0.00 0.00 0.00 81 1015.5
20200406014544 75 187 0.0 5.0 0.00 0.00 0.00 80 1015.3
20200406013126 76 188 0.0 3.0 0.00 0.00 0.00 80 1015.3
20200406011602 76 218 0.0 2.0 0.00 0.00 0.00 79 1015.2
20200406010038 76 198 2.0 4.0 0.00 0.00 0.00 79 1014.7
20200406004557 76 173 3.0 6.0 0.00 0.00 0.00 78 1014.8
20200406003058 77 181 2.0 5.0 0.00 0.00 0.00 77 1014.7
20200406001549 77 190 3.0 6.0 0.00 0.00 0.00 76 1014.7
20200406000103 77 159 2.0 6.0 0.00 0.00 0.00 75 1014.6
20200405234542 78 176 3.0 8.0 0.00 0.00 0.00 74 1014.5
20200405233049 78 187 3.0 9.0 0.00 0.00 0.00 74 1014.3
20200405231620 78 170 4.0 9.0 0.00 0.00 0.00 74 1014.1
20200405230039 78 146 3.0 12.0 0.00 0.00 0.00 73 1014.2
20200405224541 79 205 3.0 13.0 0.00 0.00 0.00 71 1014.2
20200405223046 79 147 5.0 11.0 0.00 0.00 0.00 70 1014.2
20200405221612 80 191 5.0 10.0 0.00 0.00 0.00 70 1014.3